Meteo Giornale » Osservazioni meteo Svizzera » Emmen

ore: 22:20 - Osservazioni Meteo Emmen
Lat. 47° 6' N Lon. 8° 18' E Alt. 427 metri s.l.m.

molto_nuvoloso Europe/Zurich

18 °C

Molto Nuvoloso

Temp. 24 Ore

10 °C

24 °C

Nord

3.7 Km/h

Dew point 16 °C

Umidità 88 %

Visibilità  10 Km

Il sole sorge alle ore 07:16

Il sole tramonta alle ore 19:20

Data e Ora Cielo e Fenomeni T °C DP °C Um. % Pres. hPa Vis. km Vento km/h
Oggi h: 22:20 molto_nuvoloso Molto Nuvoloso 18 16 88 1019 10 N 3.7
Oggi h: 21:50 molto_nuvoloso Molto Nuvoloso 19 16 82 1019 10 O/SO 9.3
Oggi h: 21:20 nuvoloso_piovaschi Debole Rovescio di Pioggia 18 16 88 1019 10 N 0
Oggi h: 20:50 nuvoloso_piovaschi Debole Rovescio di Pioggia 18 17 93 1019 10 N 3.7
Oggi h: 20:20 nuvoloso_piovaschi Debole Rovescio di Pioggia 19 16 82 1018 10 N 1.8
Oggi h: 19:50 nuvoloso_piovaschi Debole Rovescio di Pioggia 20 16 77 1017 10 N 0
Oggi h: 19:20 nuvoloso_piovaschi Debole Rovescio di Pioggia 20 16 77 1017 10 N 3.7
Oggi h: 18:50 nuvoloso_piovaschi Debole Rovescio di Pioggia 20 15 72 1017 10 O 7.4
Oggi h: 17:50 molto_nuvoloso Molto Nuvoloso 22 16 68 1017 10 N 3.7
Oggi h: 17:20 poco_nuvoloso Poco Nuvoloso 23 16 64 1017 10 N 3.7
Oggi h: 16:50 nuvoloso Nuvoloso 23 15 60 1017 10 N 3.7
Oggi h: 16:20 nuvoloso Nuvoloso 24 15 57 1017 10 N 1.8
Oggi h: 15:50 sereno Sereno 23 16 64 1017 10 N 3.7
Oggi h: 15:20 sereno Sereno 23 14 56 1017 10 N 1.8
Oggi h: 14:20 poco_nuvoloso Poco Nuvoloso 22 15 64 1018 10 N 3.7
Oggi h: 13:50 poco_nuvoloso Poco Nuvoloso 21 15 68 1018 10 N 0
Oggi h: 13:20 poco_nuvoloso Poco Nuvoloso 20 15 72 1019 10 N 0
Oggi h: 12:50 sereno Sereno 19 16 82 1019 10 N 3.7
Oggi h: 12:20 sereno Sereno 18 15 82 1019 10 N 1.8
Oggi h: 11:50 sereno Sereno 18 15 82 1019 10 N 3.7
Oggi h: 11:20 sereno Sereno 16 14 87 1019 10 N 1.8
Oggi h: 10:50 foschia Foschia 15 14 93 1020 4 N 1.8
Oggi h: 10:20 nebbia Nebbia 13 13 100 1020 0.6 N 0
Oggi h: 09:50 nebbia Nebbia 13 13 100 1020 0.55 N 0
Oggi h: 07:50 nebbia Nebbia 11 11 100 1019 0.25 N 0
Oggi h: 07:20 nebbia Nebbia 11 11 100 1019 0.2 N 0
Oggi h: 06:50 nebbia Nebbia 11 11 100 1019 0.35 N 0
Oggi h: 05:20 nebbia Nebbia 10 10 100 1019 0.55 N 0
Oggi h: 04:50 sereno Sereno 10 10 100 1019 7 N 0
Oggi h: 04:20 foschia Foschia 11 10 93 1019 2 N 0
Oggi h: 03:50 sereno Sereno 11 11 100 1019 7 N 0
Oggi h: 03:20 foschia Foschia 12 11 93 1019 2 N 1.8
Oggi h: 01:50 foschia Foschia 12 12 100 1020 5 N 0
Oggi h: 01:20 foschia Foschia 13 13 100 1020 9 N 0
Oggi h: 00:50 nebbia Banco di Nebbia 13 12 93 1019 5 N 3.7
Oggi h: 00:20 sereno Sereno 13 13 100 1019 10 N 1.8
Ieri h: 23:50 sereno Sereno 14 13 93 1019 10 N 0
Ieri h: 23:20 sereno Sereno 15 14 93 1019 10 N 0
Ieri h: 22:50 sereno Sereno 14 13 93 1020 10 N 0